Home   Weather   Seattle   Past weeks

Flag for USA Past Weather in Seattle, Washington, USA — Yesterday and Last 2 Weeks

Now
41 °F

Overcast.


Feels Like: 36 °F
Forecast: 37 / 44 °F
Wind: 7 mph from East

Location: Seattle Boeing Field

Current Time: Feb 21, 2017 at 10:24:58 pm

Latest Report: Feb 21, 2017 at 9:53 pm


Visibility: 10 mi

Pressure: 30.13 "Hg

Humidity: 93%

Dew Point: 39 °F

Location of SeattleLocation

Past Weather in Seattle — Graph

°F

Seattle Temperature Yesterday

Maximum temperature yesterday: 46 °F (at 11:53 am)
Minimum temperature yesterday: 40 °F (at 1:53 am)
Average temperature yesterday: 44 °F

High & Low Weather Summary for the Past Weeks

 TemperatureHumidityPressure
High59 °F (Feb 14, 2:53 pm)100% (Feb 8, 9:53 pm)30.54 "Hg (Feb 8, 9:53 pm)
Low32 °F (Feb 7, 3:53 am)41% (Feb 14, 3:53 pm)29.25 "Hg (Feb 9, 11:53 am)
Average44 °F88%29.80 "Hg
* Reported Feb 6 8:53 pm — Feb 21 8:53 pm, Seattle, Weather by CustomWeather, © 2017

Note: Actual official high and low records may vary slightly from our data, if they occured in-between our weather recording intervals... More about our weather records

Advertising

Seattle Weather History for the Previous 24 Hours

Scroll right to see more
 ConditionsComfort  
Time TempWeatherWind HumidityBarometerVisibility
8:53 pm
Tue, Feb 21
41 °FLight rain. Overcast.7 mph96%30.11 "Hg10 mi
7:53 pm42 °FLight rain. Mostly cloudy.8 mph92%30.08 "Hg7 mi
6:53 pm44 °FMostly cloudy.7 mph89%30.07 "Hg10 mi
5:53 pm45 °FPassing clouds.No wind93%30.05 "Hg10 mi
4:53 pm47 °FLight rain. More clouds than sun.3 mph80%30.03 "Hg10 mi
3:53 pm48 °FPartly sunny.3 mph68%30.01 "Hg10 mi
2:53 pm47 °FMore clouds than sun.5 mph77%29.99 "Hg10 mi
1:53 pm46 °FCloudy.No wind83%29.96 "Hg10 mi
12:53 pm46 °FMore clouds than sun.5 mph83%29.94 "Hg10 mi
11:53 am46 °FOvercast.5 mph86%29.93 "Hg10 mi
10:53 am45 °FMostly cloudy.10 mph90%29.90 "Hg10 mi
9:53 am45 °FMostly cloudy.6 mph93%29.85 "Hg10 mi
8:53 am44 °FLight rain. Mostly cloudy.3 mph96%29.82 "Hg7 mi
7:53 am43 °FLight rain. More clouds than sun.3 mph100%29.78 "Hg8 mi
6:53 am43 °FLight rain. Mostly cloudy.No wind100%29.75 "Hg8 mi
5:53 am42 °FLight rain. Partly cloudy.No wind100%29.74 "Hg8 mi
4:53 am43 °FLight rain. Overcast.5 mph97%29.72 "Hg10 mi
3:53 am43 °FMostly cloudy.5 mph97%29.71 "Hg10 mi
2:53 am43 °FMostly cloudy.No wind97%29.72 "Hg10 mi
1:53 am42 °FPassing clouds.5 mph100%29.71 "Hg10 mi
12:53 am43 °FPassing clouds.3 mph100%29.70 "Hg10 mi
11:53 pm
Mon, Feb 20
44 °FMostly cloudy.No wind100%29.71 "Hg10 mi
10:53 pm44 °FOvercast.3 mph96%29.72 "Hg10 mi
Weather by CustomWeather, © 2017

See weather overviewHow to use our weather pages